www.pogodaiklimat.ru

Погода и климат >> Архив погоды >> Казахстан >> Кусмурын


ПОГОДА в Кусмурыне

  • Прогноз погоды в Кусмурыне
  • Монитор погоды в Кусмурыне
  • Климат города

АРХИВ ПОГОДЫ в Кусмурыне

Время (UTC), дата Ветер
(напр.,м/с)
 
Видим.   Явления Облачность Т
(С)
Тd
(С)
f
(%)
Тe
(С)
Тes
(С)
Комфортность P
(гПа)
Po
(гПа)
Тmin
(С)
Tmax
(С)
R
(мм)
R24
(мм)
S
(см)
06 12.10 З 7 20 км 9/9 1000 м
[Sc]
+5.2 +1.7 78 -0 0 1007.8 994.3 -0.7
09 12.10 СЗ 5 20 км 8/6 1000 м
[Cu med, cong Ac cast]
+6.5 +1.2 69 +3 +3 1007.8 994.4
12 12.10 СЗ 5 20 км {ливн. осадки} 6/5 600 м
[Cu med, cong Ac cast Ci fib]
+5.8 +1.8 75 +2 +2 1008.6 995.2
15 12.10 СЗ 2 20 км 7 баллов +2.5 +1.5 93 -1 -1 1010.9 997.3 +7.9
18 12.10 З 3 20 км {ливн. осадки} 10/0
[Ac As]
+0.7 -0.4 92 -4 -4 1009.7 995.9 +7.9 0.6
21 12.10 З 4 20 км 8/0
[Ac und]
+0.3 -1.4 88 -5 -5 1009.2 995.4
00 13.10 З 4 20 км 3/0
[Ac lent]
-2.1 -3.3 91 -8 -8 1009.2 995.3
03 13.10 З 1 20 км 7 баллов -3.9 -5.1 91 -6 -6 1010.0 996.0
06 13.10 20 км в посл. час ливневой снег н/о +1.3 -0.4 88 -4 -4 1009.9 996.2 -5.1
09 13.10 С 4 4000 м слабый ливневой снег 10/10 600 м
[Cb cap]
+3.6 +0.4 80 -1 -1 1010.2 996.6
12 13.10 З 4 20 км 9 баллов +2.0 -1.1 80 -3 -3 1012.4 998.7
15 13.10 ЮЗ 3 20 км 7 баллов -0.4 -1.5 92 -5 -5 1013.8 1000.0 +3.8
18 13.10 ЮЗ 3 20 км 10/10 1000 м
[Sc]
-0.5 -1.7 92 -5 -5 1013.2 999.3 +3.8 0.7
21 13.10 ЮЗ 3 20 км 10/10 1000 м
[Sc]
-0.2 -1.7 90 -5 -5 1013.4 999.5
00 14.10 Ю 2 20 км 10/10 1000 м
[Sc]
+0.1 -1.7 88 -4 -4 1013.6 999.8
03 14.10 ЮЗ 2 20 км 9 баллов -0.1 -1.5 90 -4 -4 1015.1 1001.3
06 14.10 З 3 20 км 9/9 600 м
[Cu Sc]
+2.1 -0.1 85 -2 -2 1014.6 1000.8 -1.3
09 14.10 З 5 20 км в посл. час крупа {ливн. осадки} 10/8 300 м
[Cb cap Cs]
+2.6 -0.7 79 -3 -2 1014.5 1000.7
12 14.10 СЗ 3 20 км {ливн. осадки} 9/8 600 м
[Cb cap Cs]
+2.1 -0.4 84 -2 -2 1015.1 1001.3
15 14.10 штиль 0 20 км 5 баллов -0.5 -1.3 94 -2 -2 1016.6 1002.7 +4.3
18 14.10 ЮВ 1 20 км {ливн. осадки} 3/0
[Ac trans]
-3.2 -4.2 93 -6 -6 1016.0 1002.0 +4.3 2
21 14.10 штиль 0 20 км 8/0
[Ac trans]
-3.2 -4.2 93 -4 -4 1016.0 1002.0
00 15.10 штиль 0 20 км 10/10 1000 м
[Sc]
-2.0 -2.9 94 -3 -3 1015.8 1001.8
03 15.10 штиль 0 4000 м слабый снег 10/10 600 м
[Sc]
-1.6 -2.4 94 -3 -3 1016.0 1002.0 <0.5
06 15.10 С 3 20 км {снег} 9/9 1000 м
[Sc]
+0.3 -1.1 90 -4 -4 1016.1 1002.3 -4.0 0.2
09 15.10 С 4 20 км 8/8 600 м
[Cu med, cong]
+2.3 -2.6 70 -2 -2 1016.5 1002.7
12 15.10 С 6 20 км 8/6 600 м
[Cu med, cong Ac lent]
+2.0 -1.1 80 -4 -4 1017.8 1004.0
15 15.10 С 2 20 км 4 балла -0.4 -1.5 92 -4 -4 1020.6 1006.7 +2.8
18 15.10 СЗ 3 н/о {ливн. осадки} 3/0
[Ci fib]
-2.3 -3.5 91 -8 -8 1020.9 1006.8 +2.8 0.8
21 15.10 СЗ 2 20 км 1/0
[Ci fib]
-3.8 -5.0 91 -8 -8 1021.8 1007.6
00 16.10 СЗ 2 20 км 9/0
[Ac und]
-2.2 -3.1 94 -6 -6 1022.6 1008.5
03 16.10 СЗ 3 20 км 10 баллов -0.3 -1.4 92 -5 -5 1024.7 1010.7
06 16.10 С 3 20 км 9/6 1000 м
[Cu Sc Ac und]
+1.1 -0.9 86 -3 -3 1025.4 1011.5 -4.9
09 16.10 СЗ 3 20 км 8/8 1000 м
[Cu Sc]
+3.3 -2.7 65 -0 0 1025.0 1011.2
12 16.10 З 3 20 км 8/8 1000 м
[Cu Sc]
+3.2 -4.7 56 -0 -0 1025.3 1011.5
15 16.10 ЮВ 1 20 км 5/0
[Cs]
-2.1 -5.3 79 -4 -4 1025.9 1011.8 +3.4
18 16.10 ЮВ 2 20 км 9/0
[Cs]
-3.3 -6.1 81 -7 -7 1025.0 1010.8 +3.4
21 16.10 ЮВ 3 20 км 10/0
[Ac As Cs]
-1.4 -5.1 76 -6 -6 1022.3 1008.3
00 17.10 Ю 5 20 км 10/10 1000 м
[Sc]
+0.7 -3.9 71 -5 -5 1020.3 1006.4
03 17.10 Ю 6 20 км 10 баллов +1.4 -1.5 81 -5 -5 1019.1 1005.3
06 17.10 Ю 5 20 км 10/10 600 м
[Cu Sc]
+3.1 +0.7 84 -2 -2 1015.2 1001.5 -3.8
09 17.10 Ю 4 20 км 10/10 600 м
[Cu Sc]
+6.9 +1.2 67 +4 +4 1010.9 997.5
12 17.10 Ю 3 20 км 9/9 1000 м
[Cu Sc]
+11.3 +5.5 67 +10 +10 1007.2 994.0
15 17.10 Ю 4 20 км 10/5 1000 м
[Sc Ac trans Cs]
+9.2 +5.5 78 +6 +6 1004.7 991.4 +11.4
18 17.10 З 6 20 км 10/10 1000 м
[Sc]
+10.0 +4.1 67 +7 +7 1003.3 990.1 +11.4
21 17.10 СЗ 8 20 км 2 балла +4.4 +1.3 80 -2 -2 1006.8 993.3
00 18.10 З 6 20 км {ливн. осадки} ясно +1.6 -0.6 85 -5 -5 1007.9 994.2
03 18.10 З 5 20 км 5 баллов +1.0 -1.1 86 -5 -5 1009.7 996.0
06 18.10 З 8
{16}
20 км 9/8 1000 м
[Sc Ac cuf]
+4.2 +0.8 79 -2 -2 1010.1 996.5 +0.7 0.5
09 18.10 З 9 20 км 7 баллов +4.4 +0.2 74 -2 -2 1010.9 997.3
12 18.10 З 9
{16}
20 км в посл. час ливневой дождь 8/6 600 м
[Cb cap Ac cast]
+4.7 -0.4 69 -1 -1 1011.6 998.0
15 18.10 З 5 20 км 9 баллов +2.1 -0.6 82 -3 -3 1015.0 1001.3 +7.1
18 18.10 З 4 20 км {ливн. осадки} 10/0
[Ac As]
+1.4 -0.8 85 -4 -4 1014.1 1000.3 +7.1 0.6
21 18.10 З 6 20 км 10/0
[Ac As]
+1.3 -1.3 83 -5 -5 1014.7 1000.9
00 19.10 З 4 20 км 4/0
[Ac lent]
-1.4 -3.3 87 -7 -7 1016.0 1002.0
03 19.10 З 5 20 км 7 баллов +0.2 -1.9 86 -6 -6 1017.9 1004.0

 

Местоположение метеостанции Кусмурын (Костанайская область, Казахстан): широта 52.47 долгота 64.67 высота над уровнем моря 110 м.

В архиве по умолчанию представлена погода в Кусмурыне за последнюю неделю. Архивные данные за месяц целиком и за предыдущие месяцы, начиная с января 2011 года, Вы можете получить, выбрав интересующий диапазон дат из раскрывающегося списка и нажав кнопку "Ввод!".


*Определитесь, кто Вы:
робот инопланетянин человек

Внимание! Время в таблицах - всемирное. Для получения местного времени необходимо прибавить поправку, которая в Кусмурыне равна 5 ч.

Смотрите также архив погоды в соседних городах и на ближайших метеорологических станциях:

Погода в Карасу (Костанайская область, Казахстан) (61 км)
Погода в Железнодорожной (Костанайская область, Казахстан) (80 км)
Погода в Диевской (Костанайская область, Казахстан) (85 км)
Погода в Костанае 2 (Костанайская область, Казахстан) (108 км)
Погода в Караменды (Костанайская область, Казахстан) (109 км)
Погода в Костанае (Костанайская область, Казахстан) (109 км)
Погода в Сарыколе (Костанайская область, Казахстан) (111 км)
Погода в Рудном (Костанайская область, Казахстан) (118 км)
Погода в Есиле (Акмолинская область, Казахстан) (131 км)
Погода в Тоболе (Костанайская область, Казахстан) (142 км)

Пояснения к столбцам:

Ветер - указаны скорость ветра в м/с - средняя за 10 мин, порывы в срок и между сроками (в фигурных скобках) и направление, откуда дует ветер: С - северный, СВ - северо-восточный, В - восточный, ЮВ - юго-восточный, Ю - южный, ЮЗ - юго-западный, З - западный, СЗ - северо-западный.
Видимость - горизонтальная дальность видимости в метрах или километрах. При видимости от 1 до 10 км при отсутствии осадков обычно наблюдается дымка, при ухудшении видимости до 1 км и менее - туман. В сухую погоду видимость может ухудшаться дымом, пылью или мглою.
Явления - указаны атмосферные явления, наблюдавшиеся в срок или в последний час перед сроком; фигурными скобками обозначены явления, наблюдавшиеся между сроками (за 1-3 часа до срока); квадратными скобками обозначены град или гололедные отложения с указанием их диаметра в мм.
Облачность - указаны через наклонную черту общая и нижняя облачность в баллах и высота нижней границы облаков в метрах; квадратными скобками обозначены формы облаков: Ci - перистые, Cs - перисто-слоистые, Cc - перисто-кучевые, Ac - высококучевые, As - высокослоистые, Sc - слоисто-кучевые, Ns - слоисто-дождевые, Cu - кучевые, Cb - кучево-дождевые. Подробнее классификацию облаков см. в Атласе облаков (PDF).
T - Температура воздуха - температура, измеренная на высоте 2 м над землей.
Td - Температура точки росы - температура, при понижении до которой содержащийся в воздухе водяной пар достигнет насыщения.
f - Относительная влажность воздуха - влажноcть воздуха, измеренная на высоте 2 м над землей.
Te - Эффективная температура - температура, которую ощущает одетый по сезону человек в тени. Характеристика душности погоды. При расчете учитывается влияние влажности воздуха и скорости ветра на теплоощущения человека.
Tes - Эффективная температура на солнце - температура, которую ощущает человек, с поправкой на солнечный нагрев. Характеристика знойности погоды. Зависит от высоты солнца над горизонтом, облачности и скорости ветра. Ночью, в пасмурную погоду, а также при ветре 12 м/с и более поправка равна нулю.
P - Атмосферное давление - приведенное к уровню моря атмосферное давление.
Po - Атмосферное давление - измеренное на уровне метеостанции атмосферное давление.
Tmin - Минимальная температура - минимум температуры воздуха на высоте 2 м над землей.
Tmax - Максимальная температура - максимум температуры воздуха на высоте 2 м над землей.
R - Количество осадков - Количество выпавших осадков за период времени, мм. При наведении курсора мыши на число - период времени, за который выпало указанное количество осадков.
R24 - Количество осадков - Количество выпавших осадков за 24 часа, мм.
S - Снежный покров - Высота снежного покрова, см. При наведении курсора мыши на число - состояние снежного покрова и степень покрытия местности в баллах.